COSMOS 1579 COOLANT, 26520

Orbit data source: Space-Track

COSMOS 1579 COOLANT, 26520 is space debris in LEO originally from a launch on Fri, 29 Jun 1984 UTC launched from the Tyuratam Missile And Space Complex (TTMTR). Debris objects in space refer to the collection of defunct objects orbiting the Earth. Examples of debris include non-operational satellites, rocket bodies, and fragments generated from explosions, collisions, or faulty payload assembly.

Loading next visibility...
Identifier
26520, 1984-069M
Orbit
LEO
Country
Flag of CISCIS
Related business
Manufacturer
Unknown
Mission
Spacecraft
Bus & Motor
Unknown
Mass
Unknown
Launch date (UTC)
1984-06-29 (41 years ago)
Launch vehicle
Unknown
Launch site
Tyuratam Missile And Space Complex (TTMTR)
Object type
Payload
Rocket body
Debris
Shape & HBR
Unknown shape, 0.1 m
Radar Cross Section
Small (<0.1 m²)

Expand to show TLE details & history
Last TLE update: 3 days ago

TLE from 3 days ago
0 COSMOS 1579 COOLANT
1 26520U 84069M   25346.92792741  .00000188  00000-0  22022-3 0  9991
2 26520  65.0492  39.1001 0028767  76.6574 102.4505 13.90968786634470
Epoch: 2025-12-12T22:16Z
TLE epoch observation values (Epoch: 2025-12-12T22:16:12.928Z)
Latitude
0.42327°
Longitude
162.98781°
Altitude
931.71 km
Speed
7.384 km/s
True Right ascension
14h 35m 37s
True Declination
0° 25' 15"
Sunlit
Object was in daylight at epoch
Visualization orbit readout
Latitude
Unknown
Longitude
Unknown
Altitude
Unknown
Speed
Unknown
Apparent Right ascension
Unknown
Apparent Declination
Unknown
Sunlit
N/A
Visualization observer readout
Local Sidereal Time
23:23:23
Azimuth
Unknown
Elevation
Unknown
Doppler factor
Unknown
Orbital elements
Apogee altitude
944.842 km
Perigee altitude
902.831 km
Semi-major axis
7,301.974 km
Eccentricity
0.00288
Inclination
65.0492°
RAAN
39.1001°
Arg. of periapsis
76.6574°
True anomaly
102.77214°
Mean anomaly
102.4505°
Eccentric anomaly
102.61135°
Mean motion
3.47843 °/min
Orbital period
103.5 mins
BSTAR
0.00022022
Loading maneuver chart data...
Computing Atmospheric mass density...

Documentation

Showing up to 5 results
|